Terminal Aerodrome Forecast
Issued by NWS Jacksonville, FL

Home | Current Version | Previous Version | Text Only | Print | Product List | Glossary On
Versions: 1 2 3 4 5 6 7 8 9 10 11 12 13 14 15 16 17
000
FTUS42 KJAX 041734
TAFSSI
TAF
KSSI 041734Z 0418/0518 22007KT P6SM SCT040 SCT250
     FM041900 15009KT P6SM VCTS SCT050CB BKN250
     FM050100 17008KT P6SM VCSH SCT050 BKN100
     FM050300 18007KT P6SM BKN100
     FM051300 25006KT P6SM SCT030 BKN250=

USA.gov is the U.S. government's official web portal to all federal, state and local government web resources and services.